Weather in Divnaya Gora

Russia / Yaroslavl Oblast     57°30′47″N   38°28′34″E
temp.,
°C
wind,
m/s
gust,
m/s
humid.,
%
clouds,
%
prec.,
mm/h
press.,
hPa
HPBL,
m
27 june, mon
mon2700:00+20sw23820 0.0 101940
03:00+18w26880 0.0 1019106
06:00+21wnw26780 0.0 1019168
09:00+26nw48500 0.0 1019652
12:00+29nw47410 0.0 10181615
15:00+30nw47390 0.0 10182348
18:00+27n365197 0.0 1018443
21:00+21n227032 0.0 101832
28 june, tue
tue2800:00+18ne398610 0.0 1020248
03:00+14ene27882 0.0 1021168
06:00+14ne396415 0.0 1023319
09:00+17ne464410 0.0 1023924
12:00+20nne45343 0.0 10241462
15:00+21nne45310 0.0 10231807
18:00+20n44420 0.0 10231615
21:00+13nne24700 0.0 102472
29 june, wed
wed2900:00+10ene23710 0.0 102558
03:00+9e11780 0.0 102612
06:00+12e12660 0.0 1026111
09:00+18ne23420 0.0 10251071
12:00+21ne23330 0.0 10241735
15:00+22n22310 0.0 10231923
18:00+21nnw33422 0.0 10221098
21:00+13n126728 0.0 102211
30 june, thu
thu3000:00+10nne01705 0.0 102210
03:00+10nw226799 0.0 102218
06:00+13nw256447 0.0 1021136
09:00+19nnw36485 0.0 1021665
12:00+23nnw57356 0.0 10201495
15:00+23n5635100 0.0 10201391
18:00+22n364890 0.0 10191044
21:00+16n237349 0.0 102042
1 july, fri
fri100:00+14nnw227317 0.0 102116
03:00+12n11845 0.0 102210
06:00+16n12760 0.0 102287
09:00+22nnw23550 0.0 1022640
12:00+25nnw34440 0.0 10211810
15:00+27nnw45340 0.0 10201919
18:00+25n26480 0.0 10201279
21:00+19wsw12721 0.0 102011